period_start,C,m1,H,J0,J1,J2,J3,J4,J5,JA,JB,JC,JD,JJ,JK,JN,#
2015-04-28 00:02:05,0.10,3.17,0.00,23.33,27.42,30.11,4.77,26.57,1010.76,2031.91,2315.57,2512.34,2723.88,350.21,345.74,29.05,0000 0000 0000 0000 000000
2015-04-28 00:07:06,0.06,3.17,0.00,23.38,27.42,30.11,4.80,26.53,1010.76,2031.88,2314.78,2511.95,2723.07,350.53,345.77,29.08,0000 0000 0000 0000 000000
2015-04-28 00:12:08,0.11,3.17,0.00,23.36,27.42,30.12,4.64,26.47,1010.75,2031.91,2314.03,2511.19,2722.59,349.71,344.98,29.11,0000 0000 0000 0000 000000
2015-04-28 00:17:09,0.07,3.18,0.00,23.37,27.42,30.14,4.72,26.53,1010.76,2031.94,2313.22,2510.91,2722.01,350.11,345.31,29.14,0000 0000 0000 0000 000000
2015-04-28 00:22:10,0.13,3.18,0.00,23.41,27.41,30.11,4.80,26.58,1010.76,2031.93,2312.28,2510.10,2721.24,350.51,345.72,29.17,0000 0000 0000 0000 000000
2015-04-28 00:27:11,0.13,3.18,0.00,23.43,27.41,30.15,4.72,26.53,1010.76,2031.92,2311.34,2509.47,2720.65,350.17,345.37,29.20,0000 0000 0000 0000 000000
2015-04-28 00:32:13,0.06,3.19,0.00,23.38,27.40,30.16,4.73,26.57,1010.76,2031.90,2310.46,2508.95,2719.99,350.33,345.63,29.23,0000 0000 0000 0000 000000
2015-04-28 00:37:14,0.10,3.19,0.00,23.43,27.40,30.10,4.79,26.55,1010.76,2031.80,2309.54,2508.15,2719.18,350.33,345.29,29.26,0000 0000 0000 0000 000000
2015-04-28 00:42:15,0.11,3.19,0.00,23.45,27.40,30.10,4.72,26.60,1010.76,2031.88,2308.72,2507.82,2718.53,349.45,344.62,29.29,0000 0000 0000 0000 000000
2015-04-28 00:47:17,0.09,3.20,0.00,23.43,27.40,30.08,4.82,26.52,1010.73,2031.94,2307.94,2507.07,2718.00,350.39,345.54,29.31,0000 0000 0000 0000 000000
2015-04-28 00:52:18,0.10,3.20,0.00,23.40,27.40,30.06,4.72,26.48,1010.76,2031.97,2307.13,2506.73,2717.35,350.12,345.24,29.34,0000 0000 0000 0000 000000
2015-04-28 00:57:19,0.08,3.20,0.00,23.47,27.40,30.11,4.69,26.48,1010.76,2031.96,2306.33,2506.03,2716.90,349.83,344.82,29.37,0000 0000 0000 0000 000000
2015-04-28 01:02:21,0.12,3.20,0.00,23.48,27.40,30.03,4.69,26.47,1010.76,2031.94,2305.53,2505.45,2716.09,349.65,344.88,29.40,0000 0000 0000 0000 000000
2015-04-28 01:07:22,0.09,3.21,0.00,23.47,27.40,30.06,4.71,26.45,1010.76,2031.96,2304.57,2504.98,2715.52,349.95,345.00,29.43,0000 0000 0000 0000 000000
2015-04-28 01:12:23,0.11,3.21,0.00,23.51,27.40,30.07,4.87,26.55,1010.76,2031.98,2303.69,2504.20,2714.91,350.28,345.28,29.46,0000 0000 0000 0000 000000
2015-04-28 01:17:25,0.07,3.21,0.00,23.55,27.40,30.07,4.76,26.48,1010.76,2031.97,2303.00,2503.85,2714.14,350.02,345.19,29.49,0000 0000 0000 0000 000000
2015-04-28 01:22:26,0.11,3.22,0.00,23.56,27.40,30.02,4.67,26.49,1010.76,2031.96,2302.19,2503.10,2713.63,349.66,344.74,29.52,0000 0000 0000 0000 000000
2015-04-28 01:27:27,0.09,3.22,0.00,23.60,27.40,29.92,4.68,26.50,1010.76,2031.98,2301.37,2502.75,2713.02,349.85,344.87,29.55,0000 0000 0000 0000 000000
2015-04-28 01:32:28,0.11,3.22,0.00,23.56,27.39,29.81,4.67,26.46,1010.76,2031.97,2300.54,2502.04,2712.39,349.76,344.90,29.58,0000 0000 0000 0000 000000
2015-04-28 01:37:29,0.07,3.22,0.00,23.57,27.38,29.96,4.71,26.41,1010.76,2031.98,2299.88,2501.69,2711.98,350.15,345.03,29.61,0000 0000 0000 0000 000000
2015-04-28 01:42:31,0.09,3.23,0.00,23.62,27.37,29.86,4.73,26.51,1010.76,2031.99,2299.12,2501.05,2711.36,349.92,344.86,29.64,0000 0000 0000 0000 000000
2015-04-28 01:47:32,0.05,3.23,0.00,23.60,27.37,29.93,4.78,26.54,1010.76,2031.98,2298.36,2500.81,2710.93,350.38,345.23,29.67,0000 0000 0000 0000 000000
2015-04-28 01:52:34,0.11,3.23,0.00,23.58,27.37,29.84,4.76,26.42,1010.76,2031.98,2297.74,2500.06,2710.14,349.74,345.03,29.70,0000 0000 0000 0000 000000
2015-04-28 01:57:35,0.10,3.23,0.00,23.53,27.37,29.81,4.80,26.40,1010.76,2031.98,2296.84,2499.71,2709.72,350.39,345.45,29.72,0000 0000 0000 0000 000000
2015-04-28 02:02:37,0.07,3.24,0.00,23.50,27.35,29.89,4.79,26.45,1010.76,2031.98,2296.07,2499.05,2709.04,349.71,344.86,29.75,0000 0000 0000 0000 000000
2015-04-28 02:07:38,0.08,3.24,0.00,23.58,27.35,29.90,4.74,26.56,1010.76,2031.99,2295.49,2498.85,2708.70,350.37,345.47,29.78,0000 0000 0000 0000 000000
2015-04-28 02:12:40,0.09,3.24,0.00,23.53,27.35,29.82,4.78,26.63,1010.76,2031.99,2294.75,2498.07,2708.02,350.34,345.55,29.81,0000 0000 0000 0000 000000
2015-04-28 02:17:41,0.04,3.25,0.00,23.45,27.34,29.80,4.72,26.63,1010.76,2031.99,2294.01,2497.96,2707.78,349.73,344.87,29.84,0000 0000 0000 0000 000000
2015-04-28 02:22:43,0.11,3.25,0.00,23.50,27.32,29.82,4.68,26.53,1010.77,2031.99,2293.43,2497.32,2707.06,349.71,344.97,29.87,0000 0000 0000 0000 000000
2015-04-28 02:27:44,0.07,3.25,0.00,23.55,27.32,29.82,4.71,26.54,1010.78,2031.99,2292.61,2496.98,2706.65,349.65,344.78,29.90,0000 0000 0000 0000 000000
2015-04-28 02:32:45,0.09,3.25,0.00,23.47,27.32,29.82,4.80,26.52,1010.77,2031.99,2291.95,2496.28,2706.02,350.50,345.56,29.93,0000 0000 0000 0000 000000
2015-04-28 02:37:47,0.07,3.26,0.00,23.57,27.30,29.89,4.69,26.48,1010.77,2031.99,2291.23,2496.00,2705.57,349.56,344.61,29.96,0000 0000 0000 0000 000000
2015-04-28 02:42:48,0.12,3.26,0.00,23.55,27.30,29.85,4.68,26.52,1010.78,2031.99,2290.29,2495.34,2704.93,349.73,344.67,29.99,0000 0000 0000 0000 000000
2015-04-28 02:47:50,0.10,3.26,0.00,23.50,27.30,29.79,4.72,26.49,1010.77,2031.99,2289.26,2494.84,2704.10,349.49,344.50,30.02,0000 0000 0000 0000 000000
2015-04-28 02:52:51,0.13,3.27,0.00,23.61,27.30,29.80,4.81,26.57,1010.77,2031.99,2288.16,2494.02,2703.31,350.06,345.10,30.05,0000 0000 0000 0000 000000
2015-04-28 02:57:52,0.17,3.27,0.00,23.60,27.28,29.80,4.81,26.58,1010.76,2031.99,2286.85,2493.20,2702.40,350.72,345.60,30.08,0000 0000 0000 0000 000000
2015-04-28 03:02:53,0.15,3.27,0.00,23.47,27.27,29.79,4.77,26.56,1010.76,2031.99,2285.53,2492.29,2701.48,350.39,345.34,30.11,0000 0000 0000 0000 000000
2015-04-28 03:07:55,0.15,3.28,0.00,23.60,27.27,29.83,4.73,26.49,1010.76,2031.99,2284.20,2491.48,2700.55,350.35,345.29,30.13,0000 0000 0000 0000 000000
2015-04-28 03:12:56,0.13,3.28,0.00,23.61,27.27,29.81,4.75,26.48,1010.76,2031.99,2282.97,2490.63,2699.66,349.90,344.93,30.16,0000 0000 0000 0000 000000
2015-04-28 03:17:57,0.08,3.29,0.00,23.56,27.27,29.75,4.81,26.57,1010.76,2031.99,2282.02,2489.98,2698.97,350.35,345.55,30.19,0000 0000 0000 0000 000000
2015-04-28 03:22:59,0.13,3.29,0.00,23.62,27.27,29.71,4.80,26.54,1010.76,2032.00,2281.12,2489.30,2698.18,349.83,344.80,30.22,0000 0000 0000 0000 000000
2015-04-28 03:28:00,0.05,3.29,0.00,23.61,27.27,29.73,4.70,26.60,1010.77,2032.00,2280.48,2488.98,2697.89,349.91,344.90,30.25,0000 0000 0000 0000 000000
2015-04-28 03:33:02,0.11,3.30,0.00,23.57,27.26,29.75,4.81,26.51,1010.78,2032.00,2279.83,2488.30,2697.09,350.60,345.62,30.28,0000 0000 0000 0000 000000
2015-04-28 03:38:03,0.08,3.30,0.00,23.63,27.25,29.76,4.69,26.49,1010.78,2032.00,2278.90,2487.90,2696.57,349.69,344.89,30.31,0000 0000 0000 0000 000000
2015-04-28 03:43:05,0.10,3.30,0.00,23.65,27.25,29.76,4.79,26.57,1010.77,2032.00,2278.05,2487.12,2696.01,350.35,345.07,30.34,0000 0000 0000 0000 000000
2015-04-28 03:48:06,0.06,3.30,0.00,23.51,27.25,29.81,4.85,26.51,1010.78,2032.01,2277.57,2486.98,2695.65,350.49,345.70,30.37,0000 0000 0000 0000 000000
2015-04-28 03:53:07,0.08,3.31,0.00,23.33,27.25,29.92,4.77,26.63,1010.78,2032.01,2276.95,2486.48,2695.04,349.71,345.14,30.40,0000 0000 0000 0000 000000
2015-04-28 03:58:09,0.06,3.31,0.00,23.29,27.23,29.97,4.75,26.64,1010.77,2032.01,2276.19,2486.01,2694.98,349.89,345.29,30.43,0000 0000 0000 0000 000000
2015-04-28 04:03:10,0.03,3.31,0.00,23.20,27.22,30.01,4.71,26.59,1010.76,2032.02,2275.95,2485.98,2694.43,349.60,345.01,30.46,0000 0000 0000 0000 000000
2015-04-28 04:08:11,0.08,3.31,0.00,23.15,27.21,29.99,4.73,26.64,1010.76,2032.03,2275.20,2485.63,2694.02,349.63,345.18,30.49,0000 0000 0000 0000 000000
2015-04-28 04:13:12,0.03,3.31,0.00,23.18,27.20,29.95,4.73,26.64,1010.76,2032.02,2275.00,2485.07,2693.99,349.70,345.35,30.52,0000 0000 0000 0000 000000
2015-04-28 04:18:14,0.06,3.31,0.00,23.33,27.20,29.93,4.73,26.58,1010.76,2032.03,2274.67,2484.99,2693.56,350.05,345.04,30.55,0000 0000 0000 0000 000000
2015-04-28 04:23:15,0.08,3.32,0.00,23.54,27.20,29.87,4.68,26.60,1010.77,2032.05,2274.01,2484.54,2693.01,349.44,344.76,30.57,0000 0000 0000 0000 000000
2015-04-28 04:28:16,0.06,3.32,0.00,23.66,27.20,29.91,4.66,26.59,1010.77,2032.03,2273.35,2484.01,2692.67,349.89,344.91,30.60,0000 0000 0000 0000 000000
2015-04-28 04:33:18,0.04,3.32,0.00,23.48,27.20,30.00,4.73,26.60,1010.79,2032.04,2272.91,2483.89,2692.03,349.82,345.03,30.63,0000 0000 0000 0000 000000
2015-04-28 04:38:19,0.10,3.32,0.00,23.41,27.20,30.05,4.75,26.58,1010.79,2032.03,2272.10,2483.14,2691.74,349.74,344.94,30.66,0000 0000 0000 0000 000000
2015-04-28 04:43:20,0.04,3.32,0.00,23.37,27.20,30.05,4.74,26.58,1010.78,2032.02,2271.76,2482.99,2691.11,349.82,345.09,30.69,0000 0000 0000 0000 000000
2015-04-28 04:48:21,0.09,3.33,0.00,23.28,27.20,30.06,4.80,26.53,1010.78,2032.02,2270.99,2482.38,2690.96,350.04,345.40,30.72,0000 0000 0000 0000 000000
2015-04-28 04:53:22,0.07,3.33,0.00,23.23,27.20,30.04,4.69,26.48,1010.77,2032.02,2270.25,2482.01,2690.29,349.97,345.25,30.75,0000 0000 0000 0000 000000
2015-04-28 04:58:23,0.03,3.33,0.00,23.21,27.20,30.04,4.73,26.48,1010.76,2032.06,2269.81,2481.89,2689.99,349.65,345.21,30.78,0000 0000 0000 0000 000000
2015-04-28 05:03:25,0.11,3.33,0.00,23.20,27.19,29.99,4.70,26.44,1010.77,2032.04,2269.05,2481.11,2689.42,349.87,345.36,30.81,0000 0000 0000 0000 000000
2015-04-28 05:08:26,0.04,3.34,0.00,23.40,27.19,30.00,4.73,26.42,1010.79,2032.05,2268.59,2480.98,2689.01,349.79,344.89,30.84,0000 0000 0000 0000 000000
2015-04-28 05:13:27,0.09,3.34,0.00,23.64,27.20,29.92,4.76,26.57,1010.78,2032.07,2268.01,2480.44,2688.68,350.40,345.49,30.87,0000 0000 0000 0000 000000
2015-04-28 05:18:29,0.09,3.34,0.00,23.72,27.20,29.96,4.72,26.54,1010.77,2032.15,2267.27,2480.01,2688.04,350.11,344.91,30.90,0000 0000 0000 0000 000000
2015-04-28 05:23:30,0.00,3.34,0.00,23.70,27.20,29.96,4.71,26.50,1010.78,2032.09,2266.85,2479.91,2687.91,349.84,344.74,30.93,0000 0000 0000 0000 000000
2015-04-28 05:28:31,0.12,3.35,0.00,23.71,27.22,30.00,4.76,26.51,1010.77,2032.06,2266.11,2479.18,2687.17,349.46,344.39,30.96,0000 0000 0000 0000 000000
2015-04-28 05:33:33,0.05,3.35,0.00,23.55,27.22,30.03,4.82,26.67,1010.76,2032.04,2265.41,2478.96,2686.97,350.76,345.82,30.99,0000 0000 0000 0000 000000
2015-04-28 05:38:34,0.11,3.35,0.00,23.52,27.22,30.06,4.71,26.52,1010.76,2032.01,2264.78,2478.17,2686.24,349.89,345.19,31.01,0000 0000 0000 0000 000000
2015-04-28 05:43:35,0.04,3.35,0.00,23.48,27.22,30.10,4.82,26.63,1010.76,2032.04,2264.04,2477.99,2685.98,350.91,345.86,31.04,0000 0000 0000 0000 000000
2015-04-28 05:48:36,0.11,3.35,0.00,23.41,27.22,30.07,4.74,26.54,1010.76,2032.01,2263.51,2477.50,2685.40,350.06,345.20,31.07,0000 0000 0000 0000 000000
2015-04-28 05:53:37,0.03,3.36,0.00,23.35,27.22,30.07,4.73,26.59,1010.76,2032.01,2262.96,2477.02,2685.02,349.53,344.81,31.10,0000 0000 0000 0000 000000
2015-04-28 05:58:38,0.08,3.36,0.00,23.32,27.22,30.11,4.80,26.63,1010.76,2032.01,2262.17,2476.85,2684.60,350.69,345.97,31.13,0000 0000 0000 0000 000000
2015-04-28 06:03:40,0.09,3.36,0.00,23.28,27.22,30.08,4.79,26.51,1010.76,2032.02,2261.59,2476.10,2684.03,349.98,345.29,31.16,0000 0000 0000 0000 000000
2015-04-28 06:08:41,0.02,3.36,0.00,23.27,27.21,30.08,4.80,26.63,1010.76,2032.01,2261.01,2475.98,2683.87,350.34,345.65,31.19,0000 0000 0000 0000 000000
2015-04-28 06:13:42,0.12,3.36,0.00,23.27,27.20,30.06,4.81,26.48,1010.76,2032.01,2260.19,2475.44,2683.10,350.09,345.51,31.22,0000 0000 0000 0000 000000
2015-04-28 06:18:43,0.06,3.37,0.00,23.26,27.20,30.09,4.75,26.44,1010.76,2032.01,2259.56,2475.00,2682.86,350.42,345.70,31.25,0000 0000 0000 0000 000000
2015-04-28 06:23:44,0.10,3.37,0.00,23.25,27.20,30.07,4.74,26.54,1010.76,2032.01,2258.83,2474.52,2682.09,349.96,345.37,31.28,0000 0000 0000 0000 000000
2015-04-28 06:28:46,0.06,3.37,0.00,23.26,27.20,30.06,4.75,26.45,1010.76,2032.02,2258.06,2474.01,2681.95,349.98,345.40,31.31,0000 0000 0000 0000 000000
2015-04-28 06:33:47,0.07,3.37,0.00,23.26,27.20,30.02,4.84,26.53,1010.76,2032.03,2257.61,2473.97,2681.20,349.88,345.30,31.34,0000 0000 0000 0000 000000
2015-04-28 06:38:49,0.07,3.38,0.00,23.25,27.19,30.06,4.74,26.56,1010.76,2032.04,2257.02,2473.27,2681.00,349.98,345.39,31.37,0000 0000 0000 0000 000000
2015-04-28 06:43:49,0.05,3.38,0.00,23.25,27.19,30.05,4.67,26.44,1010.76,2032.08,2256.71,2473.02,2680.79,349.88,345.16,31.39,0000 0000 0000 0000 000000
2015-04-28 06:48:51,0.04,3.38,0.00,23.27,27.17,30.09,4.71,26.44,1010.76,2032.05,2256.03,2472.97,2680.08,349.68,345.10,31.42,0000 0000 0000 0000 000000
2015-04-28 06:53:52,0.11,3.38,0.00,23.27,27.17,29.99,4.67,26.39,1010.76,2032.10,2255.50,2472.39,2679.97,349.66,345.09,31.45,0000 0000 0000 0000 000000
2015-04-28 06:58:53,0.03,3.38,0.00,23.27,27.17,30.04,4.73,26.45,1010.76,2032.07,2254.98,2472.00,2679.31,350.48,345.74,31.48,0000 0000 0000 0000 000000
2015-04-28 07:03:54,0.08,3.39,0.00,23.29,27.17,30.06,4.75,26.46,1010.77,2032.12,2254.19,2471.91,2679.01,349.67,345.06,31.51,0000 0000 0000 0000 000000
2015-04-28 07:08:55,0.07,3.39,0.00,23.28,27.17,30.04,4.77,26.48,1010.77,2032.12,2253.94,2471.23,2678.76,349.97,345.20,31.54,0000 0000 0000 0000 000000
2015-04-28 07:13:56,0.09,3.39,0.00,23.28,27.17,30.05,4.76,26.45,1010.78,2032.23,2253.18,2471.00,2678.07,349.92,345.21,31.57,0000 0000 0000 0000 000000
2015-04-28 07:18:58,0.02,3.39,0.00,23.32,27.17,30.04,4.76,26.50,1010.79,2032.26,2252.96,2470.91,2677.99,350.08,345.37,31.60,0000 0000 0000 0000 000000
2015-04-28 07:23:59,0.13,3.39,0.00,23.33,27.16,30.04,4.88,26.52,1010.84,2032.37,2252.24,2470.24,2677.59,350.49,345.73,31.63,0000 0000 0000 0000 000000
2015-04-28 07:29:00,0.02,3.40,0.00,23.32,27.15,30.04,4.83,26.41,1010.83,2032.32,2251.87,2470.00,2677.02,350.34,345.68,31.66,0000 0000 0000 0000 000000
2015-04-28 07:34:02,0.08,3.40,0.00,23.34,27.15,30.03,4.76,26.52,1010.78,2032.35,2251.06,2469.83,2676.90,350.36,345.71,31.69,0000 0000 0000 0000 000000
2015-04-28 07:39:03,0.06,3.40,0.00,23.37,27.15,30.01,4.80,26.46,1010.87,2032.21,2250.54,2469.08,2676.10,349.81,345.04,31.72,0000 0000 0000 0000 000000
2015-04-28 07:44:04,0.04,3.40,0.00,23.37,27.15,30.02,4.76,26.41,1010.94,2032.28,2250.06,2468.99,2676.00,349.59,345.10,31.75,0000 0000 0000 0000 000000
2015-04-28 07:49:05,0.06,3.40,0.00,23.41,27.15,30.02,4.70,26.40,1011.11,2032.22,2249.70,2468.77,2675.60,349.86,345.22,31.78,0000 0000 0000 0000 000000
2015-04-28 07:54:07,0.08,3.41,0.00,23.44,27.15,30.01,4.62,26.41,1011.02,2032.28,2249.03,2468.10,2675.03,349.73,344.99,31.81,0000 0000 0000 0000 000000
2015-04-28 07:59:08,0.02,3.41,0.00,23.47,27.15,30.01,4.76,26.48,1010.99,2032.19,2248.60,2468.00,2674.95,349.76,345.06,31.83,0000 0000 0000 0000 000000
2015-04-28 08:04:09,0.07,3.41,0.00,23.48,27.15,29.99,4.69,26.41,1010.81,2032.13,2248.02,2467.74,2674.27,349.63,344.99,31.86,0000 0000 0000 0000 000000
2015-04-28 08:09:10,0.06,3.41,0.00,23.51,27.15,30.00,4.81,26.48,1010.84,2032.15,2247.46,2467.08,2674.00,350.54,345.65,31.89,0000 0000 0000 0000 000000
2015-04-28 08:14:12,0.06,3.41,0.00,23.49,27.15,29.97,4.73,26.45,1011.10,2032.28,2247.01,2467.00,2673.92,349.96,345.10,31.92,0000 0000 0000 0000 000000
2015-04-28 08:19:13,0.06,3.41,0.00,23.47,27.15,29.97,4.85,26.48,1010.96,2032.49,2246.84,2466.94,2673.36,349.94,345.19,31.95,0000 0000 0000 0000 000000
2015-04-28 08:24:14,0.04,3.42,0.00,23.47,27.15,29.98,4.78,26.43,1011.16,2032.22,2246.07,2466.17,2673.00,349.95,345.02,31.98,0000 0000 0000 0000 000000
2015-04-28 08:29:16,0.04,3.42,0.00,23.45,27.15,30.00,4.76,26.52,1011.24,2032.22,2245.85,2466.00,2672.91,350.39,345.52,32.01,0000 0000 0000 0000 000000
2015-04-28 08:34:17,0.05,3.42,0.00,23.42,27.15,30.01,4.78,26.53,1011.24,2032.18,2245.07,2465.95,2672.20,350.11,345.46,32.04,0000 0000 0000 0000 000000
2015-04-28 08:39:19,0.06,3.42,0.00,23.42,27.15,30.04,4.73,26.51,1011.24,2032.09,2244.59,2465.21,2672.00,349.78,345.26,32.07,0000 0000 0000 0000 000000
2015-04-28 08:44:20,0.02,3.42,0.00,23.42,27.16,30.04,4.73,26.49,1011.24,2032.06,2244.06,2465.00,2671.89,350.30,345.77,32.10,0000 0000 0000 0000 000000
2015-04-28 08:49:21,0.04,3.42,0.00,23.40,27.16,30.02,4.75,26.50,1011.24,2032.11,2243.98,2464.98,2671.31,349.93,345.25,32.13,0000 0000 0000 0000 000000
2015-04-28 08:54:23,0.06,3.42,0.00,23.40,27.16,30.03,4.67,26.48,1011.23,2032.12,2243.33,2464.81,2671.01,349.65,344.82,32.16,0000 0000 0000 0000 000000
2015-04-28 08:59:24,0.05,3.43,0.00,23.39,27.16,30.04,4.75,26.49,1011.24,2032.11,2243.00,2464.13,2670.98,349.64,345.03,32.19,0000 0000 0000 0000 000000
2015-04-28 09:04:25,0.04,3.43,0.00,23.36,27.17,30.07,4.77,26.51,1011.25,2032.24,2242.93,2464.02,2670.70,349.79,345.13,32.22,0000 0000 0000 0000 000000
2015-04-28 09:09:26,0.04,3.43,0.00,23.35,27.16,30.05,4.77,26.53,1011.26,2032.20,2242.21,2464.00,2670.08,350.38,345.86,32.24,0000 0000 0000 0000 000000
2015-04-28 09:14:28,-0.01,3.43,0.00,23.35,27.16,30.06,4.77,26.48,1011.25,2032.11,2242.00,2463.92,2670.00,349.48,345.01,32.27,0000 0000 0000 0000 000000
2015-04-28 09:19:29,0.08,3.43,0.00,23.32,27.16,30.07,4.78,26.50,1011.25,2032.21,2241.85,2463.44,2669.97,349.92,345.55,32.30,0000 0000 0000 0000 000000
2015-04-28 09:24:30,0.08,3.43,0.00,23.29,27.15,30.07,4.77,26.41,1011.25,2032.36,2241.14,2463.04,2669.68,349.94,345.47,32.33,0000 0000 0000 0000 000000
2015-04-28 09:29:32,0.01,3.44,0.00,23.29,27.15,30.07,4.70,26.42,1011.25,2032.39,2241.00,2463.00,2669.15,349.30,344.85,32.36,0000 0000 0000 0000 000000
2015-04-28 09:34:33,0.03,3.44,0.00,23.29,27.15,30.07,4.83,26.51,1011.25,2032.17,2240.61,2462.87,2669.00,349.92,345.48,32.39,0000 0000 0000 0000 000000
2015-04-28 09:39:34,0.05,3.44,0.00,23.26,27.15,30.07,4.80,26.45,1011.25,2032.07,2240.02,2462.16,2668.85,349.87,345.43,32.42,0000 0000 0000 0000 000000
2015-04-28 09:44:36,0.05,3.44,0.00,23.25,27.15,30.07,4.73,26.50,1011.25,2032.13,2239.99,2462.00,2668.27,350.20,345.66,32.45,0000 0000 0000 0000 000000
2015-04-28 09:49:37,0.04,3.44,0.00,23.22,27.15,30.08,4.78,26.52,1011.25,2032.21,2239.58,2462.00,2668.03,350.06,345.57,32.48,0000 0000 0000 0000 000000
2015-04-28 09:54:38,0.03,3.44,0.00,23.19,27.15,30.07,4.78,26.55,1011.25,2032.21,2239.02,2461.97,2668.00,350.03,345.84,32.51,0000 0000 0000 0000 000000
2015-04-28 09:59:40,0.01,3.44,0.00,23.19,27.15,30.07,4.79,26.57,1011.25,2032.22,2239.00,2461.80,2667.96,350.12,345.77,32.54,0000 0000 0000 0000 000000
2015-04-28 10:04:41,0.06,3.44,0.00,23.17,27.15,30.08,4.74,26.53,1011.25,2032.24,2238.96,2461.28,2667.63,350.07,345.65,32.57,0000 0000 0000 0000 000000
2015-04-28 10:09:42,0.04,3.44,0.00,23.14,27.14,30.07,4.78,26.51,1011.24,2032.15,2238.56,2461.02,2667.07,350.10,345.87,32.60,0000 0000 0000 0000 000000
2015-04-28 10:14:44,0.01,3.44,0.00,23.13,27.13,30.05,4.77,26.53,1011.24,2032.09,2238.04,2461.00,2667.00,350.12,345.73,32.63,0000 0000 0000 0000 000000
2015-04-28 10:19:45,-0.00,3.44,0.00,23.11,27.12,30.04,4.69,26.52,1011.21,2032.06,2238.00,2460.99,2666.99,349.47,344.96,32.65,0000 0000 0000 0000 000000
2015-04-28 10:24:46,0.01,3.44,0.00,23.08,27.12,30.03,4.77,26.44,1011.24,2032.10,2237.95,2460.96,2666.96,349.91,345.61,32.68,0000 0000 0000 0000 000000
2015-04-28 10:29:47,0.06,3.45,0.00,23.07,27.12,30.03,4.82,26.52,1011.24,2032.13,2237.42,2460.77,2666.74,350.42,346.15,32.71,0000 0000 0000 0000 000000
2015-04-28 10:34:49,0.08,3.45,0.00,23.06,27.12,30.06,4.65,26.50,1011.24,2032.25,2237.04,2460.32,2666.26,349.99,345.77,32.74,0000 0000 0000 0000 000000
2015-04-28 10:39:50,0.03,3.45,0.00,23.02,27.11,30.03,4.68,26.57,1011.24,2032.24,2236.99,2460.03,2666.02,349.57,345.39,32.77,0000 0000 0000 0000 000000
2015-04-28 10:44:51,0.06,3.45,0.00,23.10,27.10,29.99,4.74,26.43,1011.23,2032.51,2236.98,2460.01,2666.00,349.88,345.68,32.80,0000 0000 0000 0000 000000
2015-04-28 10:49:53,0.01,3.45,0.00,23.26,27.11,29.93,4.75,26.50,1011.22,2032.57,2236.70,2460.00,2666.00,349.28,344.75,32.83,0000 0000 0000 0000 000000
2015-04-28 10:54:54,0.02,3.45,0.00,23.43,27.12,29.94,4.70,26.43,1011.20,2032.57,2236.07,2459.99,2665.97,349.31,344.75,32.86,0000 0000 0000 0000 000000
2015-04-28 10:59:55,0.05,3.45,0.00,23.48,27.12,29.97,4.68,26.45,1011.21,2032.56,2236.00,2459.91,2665.60,349.56,344.84,32.89,0000 0000 0000 0000 000000
2015-04-28 11:04:56,0.03,3.45,0.00,23.38,27.13,29.98,4.81,26.66,1011.19,2032.32,2235.89,2459.31,2665.09,350.23,345.66,32.92,0000 0000 0000 0000 000000
2015-04-28 11:09:58,0.05,3.46,0.00,23.26,27.15,30.04,4.76,26.47,1011.19,2032.32,2235.19,2459.03,2665.00,350.15,345.71,32.95,0000 0000 0000 0000 000000
2015-04-28 11:14:59,-0.01,3.46,0.00,23.26,27.15,30.05,4.75,26.60,1011.24,2032.24,2235.02,2459.00,2664.99,349.74,345.29,32.98,0000 0000 0000 0000 000000
2015-04-28 11:20:00,0.01,3.46,0.00,23.19,27.15,30.07,4.78,26.56,1011.24,2032.24,2234.99,2458.99,2664.91,350.31,345.92,33.01,0000 0000 0000 0000 000000
2015-04-28 11:25:02,0.08,3.46,0.00,23.12,27.15,30.08,4.75,26.51,1011.24,2032.40,2234.62,2458.96,2664.44,350.20,345.86,33.04,0000 0000 0000 0000 000000
2015-04-28 11:30:03,0.03,3.46,0.00,23.05,27.15,30.06,4.86,26.65,1011.24,2032.24,2234.04,2458.63,2664.03,350.31,345.95,33.06,0000 0000 0000 0000 000000
2015-04-28 11:35:04,0.05,3.46,0.00,23.05,27.14,30.01,4.78,26.58,1011.24,2032.41,2234.00,2458.17,2664.01,350.39,345.94,33.09,0000 0000 0000 0000 000000
2015-04-28 11:40:05,0.01,3.46,0.00,23.17,27.14,30.00,4.81,26.50,1011.24,2032.33,2233.97,2458.01,2663.99,349.95,345.64,33.12,0000 0000 0000 0000 000000
2015-04-28 11:45:06,0.01,3.46,0.00,23.37,27.15,29.92,4.77,26.63,1011.24,2032.39,2233.86,2458.00,2663.96,349.83,345.42,33.15,0000 0000 0000 0000 000000
2015-04-28 11:50:08,0.01,3.46,0.00,23.35,27.15,29.98,4.78,26.58,1011.24,2032.15,2233.10,2457.98,2663.40,349.98,345.37,33.18,0000 0000 0000 0000 000000
2015-04-28 11:55:08,0.03,3.46,0.00,23.36,27.15,29.98,4.70,26.54,1011.24,2032.13,2232.99,2457.84,2663.03,349.55,345.14,33.21,0000 0000 0000 0000 000000
2015-04-28 12:00:10,0.06,3.46,0.00,23.36,27.17,30.00,4.70,26.48,1011.24,2032.09,2232.81,2457.22,2663.00,349.91,345.34,33.24,0000 0000 0000 0000 000000
2015-04-28 12:05:11,0.03,3.47,0.00,23.15,27.17,30.02,4.82,26.52,1011.25,2032.06,2232.09,2457.02,2662.90,350.45,345.97,33.27,0000 0000 0000 0000 000000
2015-04-28 12:10:12,0.03,3.47,0.00,23.12,27.17,30.07,4.80,26.68,1011.25,2032.03,2231.97,2457.00,2662.23,350.16,345.73,33.30,0000 0000 0000 0000 000000
2015-04-28 12:15:14,0.03,3.47,0.00,23.05,27.17,30.05,4.68,26.57,1011.26,2032.03,2231.70,2456.97,2662.00,350.23,345.88,33.33,0000 0000 0000 0000 000000
2015-04-28 12:20:15,0.05,3.47,0.00,22.96,27.15,30.04,4.77,26.53,1011.25,2032.02,2231.07,2456.65,2662.00,349.75,345.65,33.36,0000 0000 0000 0000 000000
2015-04-28 12:25:16,0.03,3.47,0.00,22.92,27.15,30.00,4.80,26.55,1011.25,2032.04,2231.00,2456.18,2661.99,350.15,346.12,33.39,0000 0000 0000 0000 000000
2015-04-28 12:30:17,0.01,3.47,0.00,23.00,27.15,29.95,4.74,26.53,1011.24,2032.08,2230.99,2456.03,2661.86,349.63,345.45,33.42,0000 0000 0000 0000 000000
2015-04-28 12:35:19,0.05,3.47,0.00,23.17,27.15,29.92,4.79,26.50,1011.24,2032.06,2230.51,2456.00,2661.19,350.10,345.68,33.45,0000 0000 0000 0000 000000
2015-04-28 12:40:20,0.02,3.47,0.00,23.33,27.15,29.94,4.71,26.66,1011.25,2032.06,2230.01,2455.99,2661.00,349.79,345.30,33.47,0000 0000 0000 0000 000000
2015-04-28 12:45:21,0.02,3.47,0.00,23.25,27.15,29.95,4.63,26.53,1011.25,2032.07,2229.96,2455.89,2661.00,349.04,344.64,33.50,0000 0000 0000 0000 000000
2015-04-28 12:50:23,0.08,3.47,0.00,23.25,27.15,29.92,4.73,26.54,1011.25,2032.06,2229.44,2455.33,2660.92,350.04,345.61,33.53,0000 0000 0000 0000 000000
2015-04-28 12:55:24,0.05,3.48,0.00,23.28,27.16,29.90,4.77,26.57,1011.25,2032.10,2229.01,2455.02,2660.27,349.95,345.32,33.56,0000 0000 0000 0000 000000
2015-04-28 13:00:25,0.03,3.48,0.00,23.23,27.16,29.87,4.76,26.45,1011.25,2032.13,2228.81,2454.99,2660.01,350.38,345.96,33.59,0000 0000 0000 0000 000000